• In Deutschland
  • Länderverzeichnis
  • Für 7 Tage
  • Wassertemperatur
  • Satellitenkarten
  • Wetterkarte
  • Widgets
  • user-avatar
    Anmelden

    Stündliche Wetter Hameln

    Heute, 17 Oktober, Dienstag

    Zeit Temperatur Niederschläge Wind Luftdruck Luftfeuchtigkeit
    00:00 +16°C° 0 mm 3 m/S 756 mmHg 77%
    01:00 +16°C° 0 mm 3 m/S 756 mmHg 76%
    02:00 +16°C° 0 mm 3 m/S 756 mmHg 77%
    03:00 +14°C° 0 mm 3 m/S 756 mmHg 78%
    04:00 +14°C° 0 mm 3 m/S 756 mmHg 79%
    05:00 +13°C° 0 mm 3 m/S 756 mmHg 82%
    06:00 +14°C° 0 mm 2 m/S 756 mmHg 85%
    07:00 +13°C° 0 mm 2 m/S 756 mmHg 86%
    08:00 +15°C° 0 mm 2 m/S 756 mmHg 82%
    09:00 +16°C° 0 mm 3 m/S 756 mmHg 78%
    10:00 +18°C° 0 mm 3 m/S 756 mmHg 74%
    11:00 +19°C° 0 mm 3 m/S 756 mmHg 72%
    12:00 +20°C° 0 mm 3 m/S 756 mmHg 70%
    13:00 +20°C° 0 mm 2 m/S 756 mmHg 63%
    14:00 +19°C° 0 mm 2 m/S 755 mmHg 66%
    15:00 +19°C° 0 mm 2 m/S 755 mmHg 68%
    16:00 +19°C° 0 mm 2 m/S 754 mmHg 71%
    17:00 +18°C° 0 mm 2 m/S 754 mmHg 75%
    18:00 +16°C° 0 mm 1 m/S 754 mmHg 80%
    19:00 +15°C° 0 mm 1 m/S 754 mmHg 84%
    20:00 +14°C° 0 mm 1 m/S 754 mmHg 85%
    21:00 +14°C° 0 mm 1 m/S 754 mmHg 86%
    22:00 +14°C° 0 mm 1 m/S 754 mmHg 86%
    23:00 +13°C° 0 mm 1 m/S 754 mmHg 87%

    Morgen, 18 Oktober, Mittwoch

    Zeit Temperatur Niederschläge Wind Luftdruck Luftfeuchtigkeit
    00:00 +13°C° 0 mm 1 m/S 753 mmHg 88%
    01:00 +13°C° 0 mm 1 m/S 753 mmHg 88%
    02:00 +13°C° 0 mm 1 m/S 753 mmHg 89%
    03:00 +12°C° 0 mm 1 m/S 753 mmHg 90%
    04:00 +12°C° 0 mm 1 m/S 752 mmHg 90%
    05:00 +12°C° 0 mm 1 m/S 752 mmHg 91%
    06:00 +12°C° 0 mm 1 m/S 752 mmHg 91%
    07:00 +12°C° 0 mm 1 m/S 752 mmHg 91%
    08:00 +13°C° 0 mm 1 m/S 752 mmHg 86%
    09:00 +15°C° 0 mm 1 m/S 752 mmHg 80%
    10:00 +16°C° 0 mm 1 m/S 751 mmHg 74%
    11:00 +18°C° 0 mm 1 m/S 751 mmHg 70%
    12:00 +20°C° 0 mm 1 m/S 751 mmHg 66%
    13:00 +21°C° 0 mm 1 m/S 751 mmHg 62%
    14:00 +21°C° 0 mm 1 m/S 751 mmHg 64%
    15:00 +20°C° 0 mm 1 m/S 750 mmHg 67%
    16:00 +20°C° 0 mm 1 m/S 750 mmHg 69%
    17:00 +19°C° 0 mm 1 m/S 750 mmHg 74%
    18:00 +16°C° 0 mm 1 m/S 750 mmHg 79%
    19:00 +14°C° 0 mm 1 m/S 750 mmHg 84%
    20:00 +14°C° 0 mm 1 m/S 750 mmHg 85%
    21:00 +13°C° 0 mm 1 m/S 750 mmHg 86%
    22:00 +13°C° 0 mm 1 m/S 750 mmHg 88%
    23:00 +13°C° 0 mm 1 m/S 750 mmHg 88%

    übermorgen, 19 Oktober, Donnerstag

    Zeit Temperatur Niederschläge Wind Luftdruck Luftfeuchtigkeit
    00:00 +12°C° 0 mm 1 m/S 750 mmHg 89%
    01:00 +12°C° 0 mm 1 m/S 750 mmHg 89%
    02:00 +12°C° 0 mm 1 m/S 750 mmHg 89%
    03:00 +11°C° 0 mm 1 m/S 750 mmHg 89%
    04:00 +11°C° 0 mm 1 m/S 750 mmHg 90%
    05:00 +10°C° 0 mm 2 m/S 750 mmHg 90%
    06:00 +10°C° 0 mm 2 m/S 750 mmHg 90%
    07:00 +10°C° 0 mm 2 m/S 750 mmHg 90%
    08:00 +13°C° 0 mm 2 m/S 750 mmHg 84%
    09:00 +14°C° 0 mm 2 m/S 750 mmHg 77%
    10:00 +16°C° 0 mm 2 m/S 750 mmHg 71%
    11:00 +17°C° 0 mm 2 m/S 750 mmHg 67%
    12:00 +19°C° 0 mm 2 m/S 750 mmHg 63%
    13:00 +20°C° 0 mm 3 m/S 750 mmHg 60%
    14:00 +20°C° 0 mm 2 m/S 749 mmHg 62%
    15:00 +20°C° 0 mm 2 m/S 749 mmHg 65%
    16:00 +19°C° 0 mm 2 m/S 749 mmHg 68%
    17:00 +18°C° 0 mm 2 m/S 749 mmHg 70%
    18:00 +17°C° 0 mm 2 m/S 749 mmHg 72%
    19:00 +14°C° 0 mm 3 m/S 749 mmHg 74%
    20:00 +14°C° 0 mm 3 m/S 749 mmHg 73%
    21:00 +14°C° 0 mm 3 m/S 750 mmHg 71%
    22:00 +15°C° 0 mm 2 m/S 750 mmHg 70%
    23:00 +15°C° 0 mm 2 m/S 750 mmHg 69%

    20 Oktober, Freitag

    Zeit Temperatur Niederschläge Wind Luftdruck Luftfeuchtigkeit
    00:00 +15°C° 0 mm 2 m/S 750 mmHg 68%
    01:00 +15°C° 0 mm 2 m/S 750 mmHg 67%
    02:00 +15°C° 0 mm 2 m/S 750 mmHg 67%
    03:00 +15°C° 0 mm 2 m/S 750 mmHg 67%
    04:00 +14°C° 0 mm 2 m/S 750 mmHg 67%
    05:00 +14°C° 0 mm 2 m/S 750 mmHg 68%
    06:00 +14°C° 0 mm 2 m/S 750 mmHg 68%
    07:00 +14°C° 0 mm 2 m/S 750 mmHg 68%
    08:00 +13°C° 0 mm 3 m/S 750 mmHg 67%
    09:00 +14°C° 0 mm 3 m/S 750 mmHg 67%
    10:00 +16°C° 0 mm 3 m/S 750 mmHg 66%
    11:00 +16°C° 0 mm 3 m/S 750 mmHg 65%
    12:00 +17°C° 0 mm 3 m/S 750 mmHg 65%
    13:00 +18°C° 0 mm 4 m/S 750 mmHg 65%
    14:00 +17°C° 0,1 mm 3 m/S 750 mmHg 69%
    15:00 +17°C° 0,1 mm 3 m/S 750 mmHg 73%
    16:00 +17°C° 0,1 mm 3 m/S 750 mmHg 77%
    17:00 +16°C° 0,2 mm 3 m/S 750 mmHg 80%
    18:00 +14°C° 0,2 mm 3 m/S 750 mmHg 83%
    19:00 +13°C° 0,2 mm 3 m/S 750 mmHg 87%
    20:00 +13°C° 0,1 mm 3 m/S 750 mmHg 88%
    21:00 +12°C° 0,1 mm 3 m/S 751 mmHg 89%
    22:00 +13°C° 0,1 mm 2 m/S 751 mmHg 90%
    23:00 +13°C° 0 mm 2 m/S 751 mmHg 91%

    21 Oktober, Samstag

    Zeit Temperatur Niederschläge Wind Luftdruck Luftfeuchtigkeit
    00:00 +12°C° 0 mm 2 m/S 751 mmHg 92%
    01:00 +12°C° 0 mm 2 m/S 751 mmHg 92%
    02:00 +12°C° 0 mm 2 m/S 750 mmHg 92%
    03:00 +12°C° 0 mm 2 m/S 750 mmHg 91%
    04:00 +13°C° 0 mm 2 m/S 750 mmHg 90%
    05:00 +12°C° 0 mm 3 m/S 750 mmHg 89%
    06:00 +12°C° 0 mm 3 m/S 750 mmHg 88%
    07:00 +13°C° 0 mm 3 m/S 750 mmHg 87%
    08:00 +13°C° 0 mm 3 m/S 750 mmHg 84%
    09:00 +14°C° 0 mm 4 m/S 750 mmHg 82%
    10:00 +15°C° 0 mm 4 m/S 749 mmHg 79%
    11:00 +15°C° 0,2 mm 4 m/S 749 mmHg 79%
    12:00 +15°C° 0,2 mm 4 m/S 749 mmHg 80%
    13:00 +17°C° 0,2 mm 4 m/S 749 mmHg 81%
    14:00 +17°C° 0,2 mm 4 m/S 749 mmHg 83%
    15:00 +17°C° 0,2 mm 4 m/S 749 mmHg 84%
    16:00 +15°C° 0,2 mm 4 m/S 749 mmHg 85%
    17:00 +15°C° 0,5 mm 4 m/S 749 mmHg 87%
    18:00 +14°C° 0,5 mm 4 m/S 750 mmHg 89%
    19:00 +14°C° 0,5 mm 4 m/S 750 mmHg 91%
    20:00 +13°C° 0 mm 4 m/S 750 mmHg 90%
    21:00 +12°C° 0 mm 4 m/S 750 mmHg 89%
    22:00 +12°C° 0 mm 4 m/S 750 mmHg 87%
    23:00 +11°C° 0 mm 4 m/S 750 mmHg 87%

    22 Oktober, Sonntag

    Zeit Temperatur Niederschläge Wind Luftdruck Luftfeuchtigkeit
    00:00 +11°C° 0 mm 4 m/S 750 mmHg 88%
    01:00 +10°C° 0 mm 4 m/S 750 mmHg 88%
    02:00 +9°C° 0 mm 5 m/S 750 mmHg 88%
    03:00 +9°C° 0 mm 5 m/S 750 mmHg 88%
    04:00 +9°C° 0 mm 5 m/S 750 mmHg 88%
    05:00 +9°C° 0 mm 5 m/S 750 mmHg 86%
    06:00 +9°C° 0 mm 5 m/S 750 mmHg 85%
    07:00 +8°C° 0 mm 5 m/S 750 mmHg 83%
    08:00 +9°C° 0 mm 6 m/S 750 mmHg 80%
    09:00 +10°C° 0 mm 6 m/S 750 mmHg 77%
    10:00 +10°C° 0 mm 7 m/S 751 mmHg 73%
    11:00 +11°C° 0 mm 7 m/S 751 mmHg 71%
    12:00 +11°C° 0 mm 7 m/S 751 mmHg 69%
    13:00 +11°C° 0 mm 7 m/S 751 mmHg 67%
    14:00 +11°C° 0 mm 6 m/S 751 mmHg 69%
    15:00 +11°C° 0 mm 6 m/S 751 mmHg 70%
    16:00 +10°C° 0 mm 6 m/S 752 mmHg 72%
    17:00 +9°C° 0 mm 5 m/S 752 mmHg 75%
    18:00 +9°C° 0 mm 5 m/S 753 mmHg 78%
    19:00 +8°C° 0 mm 4 m/S 753 mmHg 80%
    20:00 +7°C° 0 mm 4 m/S 754 mmHg 81%
    21:00 +7°C° 0 mm 4 m/S 754 mmHg 81%
    22:00 +7°C° 0 mm 4 m/S 754 mmHg 81%
    23:00 +6°C° 0 mm 4 m/S 755 mmHg 80%
    Mehr zeigen